Weather History for Fayetteville, AR

Change the Weather History Date:

Monday, December 12, 2011

  Actual Average Record
Temperature  
Mean Temperature 41 °F 38 °F  
Max Temperature 46 °F 48 °F 69 °F (1991)
Min Temperature 36 °F 27 °F 0 °F (1962)
Degree Days  
Heating Degree Days 24 27  
Month to date heating degree days 308  
Since 1 July heating degree days 1137  
Moisture  
Dew Point 30 °F    
Average Humidity 68    
Maximum Humidity 100    
Minimum Humidity 45    
Precipitation  
Precipitation 0.23 in 0.10 in 1.14 in (1998)
Month to date precipitation 1.38  
Year to date precipitation 46.65  
Sea Level Pressure  
Sea Level Pressure 30.33 in    
Wind  
Wind Speed 2 mph (SSE)    
Max Wind Speed 9 mph    
Max Gust Speed -    
Visibility 9 miles    
Events Rain    
T = Trace of Precipitation, MM = Missing Value Source: NWS Daily Summary

Daily Weather History Graph

Daily Weather History Graph

Search for Another Location

Airport:

Trip Planner

Search our weather history database for the weather conditions in past years. The results will help you decide how hot, cold, wet, or windy it might be!

Date:

Astronomy

Dec. 12, 2011 Rise Set
Actual Time 7:17 AM CST 5:02 PM CST
Civil Twilight 6:49 AM CST 5:31 PM CST
Nautical Twilight 6:17 AM CST 6:03 PM CST
Astronomical Twilight 5:45 AM CST 6:34 PM CST
Moon 7:12 PM CST (12/12) 8:51 AM CST (12/12)
Length of Visible Light 10h 42m
Length of Day
9h 45m
Waning Gibbous, 95% of the Moon is Illuminated
Dec 12
Waning Gibbous
Dec 17
Last Quarter
Dec 24
New
Jan 1
First Quarter
Jan 9
Full

Hourly Weather History & Observations

Time (CST) Temp. Windchill Dew Point Humidity Pressure Visibility Wind Dir Wind Speed Gust Speed Precip Events Conditions
12:53 AM 36.0 °F - 28.9 °F 76% 30.29 in 10.0 mi Calm Calm - N/A   Overcast
1:53 AM 39.0 °F 36.8 °F 23.0 °F 53% 30.29 in 10.0 mi SE 3.5 mph - N/A   Mostly Cloudy
2:53 AM 39.9 °F 33.9 °F 21.9 °F 49% 30.30 in 10.0 mi South 9.2 mph - N/A   Overcast
3:53 AM 39.0 °F 36.8 °F 19.0 °F 45% 30.29 in 10.0 mi SSE 3.5 mph - N/A   Overcast
4:53 AM 39.0 °F - 19.0 °F 45% 30.30 in 10.0 mi Calm Calm - 0.00 in   Overcast
5:53 AM 39.0 °F 35.7 °F 19.9 °F 46% 30.31 in 10.0 mi SW 4.6 mph - N/A   Overcast
6:53 AM 37.0 °F - 28.0 °F 70% 30.33 in 10.0 mi Calm Calm - 0.00 in Rain Light Rain
7:53 AM 37.4 °F - 28.4 °F 70% 30.31 in 10.0 mi Calm Calm - N/A   Overcast
8:53 AM 39.0 °F 36.8 °F 27.0 °F 62% 30.35 in 10.0 mi SSE 3.5 mph - N/A   Overcast
9:53 AM 39.9 °F - 28.0 °F 63% 30.36 in 10.0 mi Calm Calm - N/A   Overcast
10:53 AM 42.1 °F - 25.0 °F 51% 30.36 in 10.0 mi Calm Calm - N/A   Overcast
11:53 AM 43.0 °F - 24.1 °F 47% 30.34 in 10.0 mi Calm Calm - N/A   Overcast
12:53 PM 45.0 °F - 26.1 °F 48% 30.32 in 10.0 mi Calm Calm - N/A   Overcast
1:53 PM 46.9 °F - 28.0 °F 48% 30.28 in 10.0 mi Calm Calm - N/A   Overcast
2:53 PM 46.9 °F - 27.0 °F 46% 30.28 in 10.0 mi Calm Calm - N/A   Overcast
3:53 PM 46.0 °F - 30.0 °F 54% 30.30 in 10.0 mi Calm Calm - N/A   Overcast
4:53 PM 46.0 °F - 30.9 °F 56% 30.30 in 10.0 mi Calm Calm - 0.00 in   Overcast
5:53 PM 45.0 °F - 30.0 °F 56% 30.32 in 5.0 mi Calm Calm - 0.01 in Rain Rain
6:53 PM 41.0 °F - 39.0 °F 93% 30.34 in 10.0 mi Calm Calm - 0.01 in   Overcast
7:53 PM 41.0 °F 38.0 °F 37.0 °F 86% 30.35 in 6.0 mi SE 4.6 mph - 0.01 in Rain Light Rain
8:15 PM 39.2 °F - 35.6 °F 87% 30.34 in 8.0 mi Calm Calm - 0.01 in Rain Light Rain
8:42 PM 41.0 °F - 35.6 °F 81% 30.34 in 4.0 mi Calm Calm - 0.03 in Rain Rain
8:53 PM 39.9 °F - 37.0 °F 89% 30.36 in 7.0 mi Calm Calm - 0.04 in Rain Light Rain
9:53 PM 39.9 °F - 39.0 °F 97% 30.36 in 7.0 mi Calm Calm - 0.06 in Rain Light Rain
10:11 PM 39.2 °F 34.2 °F 39.2 °F 100% 30.35 in 2.5 mi NW 6.9 mph - 0.06 in Rain Rain
10:19 PM 39.2 °F 37.0 °F 39.2 °F 100% 30.35 in 4.0 mi NNW 3.5 mph - 0.07 in Rain Light Rain
10:53 PM 39.9 °F - 39.0 °F 97% 30.37 in 10.0 mi Calm Calm - 0.08 in Rain Light Rain
11:53 PM 39.0 °F - 39.0 °F 100% 30.38 in 9.0 mi Calm Calm - 0.02 in Rain Light Rain